Date String (YYYY-MM-DD hh:mm:ss) UTC,Instrument flags,Ambient pressure (hPa),Sample flow (lpm),Bypass flow (lpm),Sample temperature (°C),Ambient temperature (°C),ASC tube jacket temperature (°C),LED temperature (°C),Box temperature (°C),Sample RH (%),Span deviation,Mass concentration (μg/m³),Mass concentration (μg/m³),Mass concentration (μg/m³)
DateTimeUTC,F1_M11,P_M11,Q1_M11,Q2_M11,T1_M11,T2_M11,T3_M11,T4_M11,T5_M11,U1_M11,ZSPAN_M11,X0_M11,X2_M11,X1_M11
2022-03-11 11:00:00,,0826.3,5.01,0.00,22.1,21.9,00.0,31.3,23.8,05.6,0001.8,0014.17,0010.65,0010.18
2022-03-11 11:01:00,,0826.3,5.01,0.00,22.3,22.6,00.0,31.3,24.0,05.5,0001.5,0014.16,0010.59,0010.12
2022-03-11 11:02:00,,0826.4,5.00,0.00,22.4,23.1,00.0,31.3,24.2,05.5,0001.1,0014.29,0010.55,0010.07
2022-03-11 11:03:00,,0826.3,4.98,0.00,22.4,22.9,00.0,31.3,24.3,05.5,0000.9,0014.26,0010.52,0010.03
2022-03-11 11:04:00,,0826.3,4.99,0.00,22.4,22.6,00.0,31.3,24.2,05.5,0000.3,0014.15,0010.44,0009.96
2022-03-11 11:05:00,,0826.3,5.01,0.00,22.4,22.3,00.0,31.3,24.0,05.6,0000.1,0014.23,0010.40,0009.93
2022-03-11 11:06:00,,0826.3,5.00,0.00,22.3,22.0,00.0,31.3,23.9,05.7,0000.5,0014.17,0010.41,0009.93
2022-03-11 11:07:00,,0826.3,5.00,0.00,22.2,21.7,00.0,31.3,23.8,05.7,0000.2,0014.21,0010.46,0009.99
2022-03-11 11:08:00,,0826.3,5.00,0.00,22.2,21.5,00.0,31.3,23.7,05.8,0000.0,0014.23,0010.57,0010.11
2022-03-11 11:09:00,,0826.3,5.00,0.00,22.2,21.5,00.0,31.3,23.7,05.8,0000.1,0014.26,0010.68,0010.23
2022-03-11 11:10:00,,0826.3,5.01,0.00,22.2,22.0,00.0,31.3,23.8,05.8,0000.5,0014.31,0010.73,0010.28
2022-03-11 11:11:00,,0826.3,5.00,0.00,22.3,22.7,00.0,31.3,24.1,05.7,0000.9,0014.26,0010.67,0010.24
2022-03-11 11:12:00,,0826.3,5.01,0.00,22.4,23.1,00.0,31.3,24.3,05.7,0001.0,0014.24,0010.68,0010.23
2022-03-11 11:13:00,,0826.3,5.00,0.00,22.5,22.8,00.0,31.3,24.3,05.7,0001.3,0014.16,0010.71,0010.27
2022-03-11 11:14:00,,0826.3,4.99,0.00,22.5,22.5,00.0,31.3,24.2,05.7,0001.4,0014.30,0010.76,0010.31
2022-03-11 11:15:00,,0826.3,5.01,0.00,22.4,22.2,00.0,31.3,24.1,05.7,0001.7,0014.24,0010.76,0010.32
2022-03-11 11:16:00,,0826.3,5.01,0.00,22.4,21.9,00.0,31.3,24.0,05.8,0001.5,0014.18,0010.83,0010.36
2022-03-11 11:17:00,,0826.2,5.01,0.00,22.3,21.8,00.0,31.3,23.9,05.8,0001.1,0014.17,0010.82,0010.36
2022-03-11 11:18:00,,0826.2,5.00,0.00,22.3,21.6,00.0,31.3,23.9,05.8,0001.3,0014.09,0010.76,0010.32
2022-03-11 11:19:00,,0826.2,5.00,0.00,22.2,21.5,00.0,31.3,23.8,05.8,0001.6,0013.97,0010.61,0010.17
2022-03-11 11:20:00,,0826.2,4.98,0.00,22.3,22.0,00.0,31.3,23.9,05.7,0001.5,0013.82,0010.46,0010.02
2022-03-11 11:21:00,,0826.2,5.01,0.00,22.4,22.7,00.0,31.3,24.2,05.6,0001.0,0013.58,0010.31,0009.91
2022-03-11 11:22:00,,0826.3,5.00,0.00,22.5,23.2,00.0,31.4,24.4,05.5,0000.6,0013.52,0010.27,0009.85
2022-03-11 11:23:00,,0826.2,5.00,0.00,22.6,22.9,00.0,31.4,24.4,05.5,0000.6,0013.42,0010.18,0009.78
2022-03-11 11:24:00,,0826.2,4.99,0.00,22.5,22.6,00.0,31.4,24.3,05.5,0000.5,0013.21,0010.06,0009.67
2022-03-11 11:25:00,,0826.2,5.01,0.00,22.5,22.3,00.0,31.4,24.2,05.4,0000.4,0013.01,0009.97,0009.60
2022-03-11 11:26:00,,0826.2,4.98,0.00,22.5,22.1,00.0,31.4,24.1,05.4,0000.5,0013.00,0009.94,0009.58
2022-03-11 11:27:00,,0826.2,5.01,0.00,22.4,21.8,00.0,31.4,24.0,05.4,0000.8,0012.85,0009.81,0009.47
2022-03-11 11:28:00,,0826.2,5.00,0.00,22.4,21.7,00.0,31.4,24.0,05.4,0000.3,0012.73,0009.67,0009.34
2022-03-11 11:29:00,,0826.2,5.00,0.00,22.3,21.5,00.0,31.4,23.9,05.5,0000.1,0012.68,0009.59,0009.23
2022-03-11 11:30:00,,0826.2,5.00,0.00,22.3,21.6,00.0,31.3,23.9,05.5,0000.1,0012.95,0009.61,0009.21
2022-03-11 11:31:00,,0826.3,4.99,0.00,22.3,22.2,00.0,31.4,24.0,05.6,0000.1,0013.27,0009.72,0009.33
2022-03-11 11:32:00,,0826.3,5.00,0.00,22.5,22.9,00.0,31.4,24.2,05.7,0000.1,0013.49,0009.90,0009.50
2022-03-11 11:33:00,,0826.3,5.00,0.00,22.6,23.0,00.0,31.4,24.4,05.6,0000.2,0013.62,0010.00,0009.60
2022-03-11 11:34:00,,0826.2,4.99,0.00,22.6,22.7,00.0,31.4,24.3,05.5,0000.1,0013.62,0010.01,0009.63
2022-03-11 11:35:00,,0826.2,5.01,0.00,22.5,22.4,00.0,31.4,24.2,05.5,0000.3,0013.88,0010.09,0009.70
2022-03-11 11:36:00,,0826.2,5.01,0.00,22.5,22.1,00.0,31.4,24.1,05.7,0000.4,0014.11,0010.20,0009.78
2022-03-11 11:37:00,,0826.2,4.99,0.00,22.4,21.9,00.0,31.4,24.0,05.8,0000.2,0014.80,0010.40,0009.94
2022-03-11 11:38:00,,0826.4,5.00,0.00,22.3,21.7,00.0,31.4,23.9,05.9,0000.1,0016.21,0010.59,0010.11
2022-03-11 11:39:00,,0826.5,5.01,0.00,22.3,21.6,00.0,31.4,23.8,05.9,0000.4,0016.57,0010.76,0010.29
2022-03-11 11:40:00,,0826.5,5.01,0.00,22.3,22.2,00.0,31.4,24.0,05.9,0000.5,0016.72,0010.91,0010.45
2022-03-11 11:41:00,,0826.5,5.00,0.00,22.4,22.8,00.0,31.4,24.2,05.8,0000.6,0016.77,0011.05,0010.58
2022-03-11 11:42:00,,0826.4,5.01,0.00,22.6,23.4,00.0,31.4,24.5,05.8,0000.7,0016.53,0011.09,0010.61
2022-03-11 11:43:00,,0826.3,4.98,0.00,22.6,23.2,00.0,31.5,24.5,05.8,0000.5,0016.57,0011.08,0010.61
2022-03-11 11:44:00,,0826.4,5.02,0.00,22.6,22.8,00.0,31.5,24.4,05.9,0000.4,0016.78,0011.21,0010.73
2022-03-11 11:45:00,,0826.4,4.99,0.00,22.6,22.4,00.0,31.5,24.3,05.9,0000.3,0017.00,0011.39,0010.91
2022-03-11 11:46:00,,0826.3,5.01,0.00,22.5,22.1,00.0,31.5,24.2,06.0,0000.4,0017.05,0011.51,0011.03
2022-03-11 11:47:00,,0826.4,5.00,0.00,22.5,21.8,00.0,31.5,24.1,06.0,0000.2,0016.94,0011.58,0011.12
2022-03-11 11:48:00,,0826.4,4.99,0.00,22.4,21.5,00.0,31.4,24.0,06.0,0000.0,0016.65,0011.53,0011.09
2022-03-11 11:49:00,,0826.4,5.00,0.00,22.3,21.4,00.0,31.4,23.9,06.0,0000.1,0015.37,0011.48,0011.05
2022-03-11 11:50:00,,0826.5,5.01,0.00,22.3,21.3,00.0,31.4,23.9,06.0,0000.1,0015.13,0011.48,0011.04
2022-03-11 11:51:00,,0826.5,5.00,0.00,22.3,21.5,00.0,31.4,23.9,05.8,-000.1,0015.25,0011.48,0011.01
2022-03-11 11:52:00,,0826.5,4.98,0.00,22.4,22.3,00.0,31.4,24.1,05.8,-000.4,0015.18,0011.41,0010.96
2022-03-11 11:53:00,,0826.5,5.02,0.00,22.5,22.9,00.0,31.4,24.3,05.8,-000.7,0015.14,0011.36,0010.93
2022-03-11 11:54:00,,0826.5,5.00,0.00,22.6,22.9,00.0,31.4,24.4,05.8,-000.6,0015.14,0011.35,0010.93
2022-03-11 11:55:00,,0826.5,4.99,0.00,22.6,22.6,00.0,31.5,24.3,05.7,-000.4,0015.02,0011.30,0010.88
2022-03-11 11:56:00,,0826.5,5.01,0.00,22.5,22.1,00.0,31.4,24.2,05.7,-000.3,0015.00,0011.29,0010.87
2022-03-11 11:57:00,,0826.5,5.00,0.00,22.4,21.6,00.0,31.4,24.0,05.7,-000.4,0015.01,0011.30,0010.88
2022-03-11 11:58:00,,0826.5,4.99,0.00,22.3,21.4,00.0,31.4,23.7,05.7,-000.3,0015.14,0011.34,0010.90
2022-03-11 11:59:00,,0826.5,5.02,0.00,22.1,21.1,00.0,31.3,23.5,05.6,-000.1,0015.28,0011.36,0010.94
